[[{"header":{"parameterUnit":"m.s-1","parameterCategory":1,"la1":30.2991,"la2":30.254,"lo1":-89.0895,"lo2":-89.0444,"dy":0.0017,"dx":0.0017,"nx":28,"ny":28,"refTime":"2025-08-03T21:00:00:Z","depth":0,"parameterNumber":2,"parameterNumberName":"U-component_of_WINDS"},"data":[0,0,0,0,0,0,0,0,0,0,0,0,0,0,0,0,0,0,0,0,0,0,0,0,0,0,0,0,0,0,0,0,0,0,0,0,0,0,0,0,0,0,0,0,0,0,0,0,0,0,0,0,0,0,0,0,0,0,-0.0532,-0.0534,0,-0.0671,-0.0672,-0.0674,-0.0744,-0.0744,-0.0744,-0.0744,-0.0891,-0.0895,-0.0899,0,0,0,0,0,0,0,0,0,0,0,0,0,-0.0333,-0.0336,-0.0532,-0.0534,-0.0536,-0.067,-0.0672,-0.0674,-0.0744,-0.0744,-0.0744,-0.0744,-0.089,-0.0895,-0.0899,0,0,0,0,0,0,0,0,0,0,0,0,0,-0.044,-0.0337,-0.0532,-0.0587,-0.0593,-0.067,-0.0672,-0.0675,-0.0744,-0.0744,-0.0744,-0.0744,-0.0889,-0.0894,-0.09,-0.0935,0,0,-0.0918,-0.092,0,0,0,0,0,0,0,0,-0.0434,-0.0447,-0.0577,-0.0583,-0.059,-0.069,-0.0656,-0.0762,-0.0744,-0.0687,-0.0744,-0.0744,-0.0825,-0.0836,-0.0862,-0.0942,-0.0948,-0.0918,-0.0922,-0.0924,-0.0926,0,0,0,0,0,0,0,-0.0426,-0.0442,-0.0587,-0.0579,-0.0587,-0.0606,-0.0621,-0.0676,-0.0754,-0.0692,-0.0697,-0.0713,-0.0829,-0.0856,-0.0866,-0.095,-0.0918,-0.0923,-0.0927,-0.0929,-0.1065,-0.1065,0,0,0,0,0,0,-0.0409,-0.0435,-0.0583,-0.0591,-0.051,-0.0609,-0.0626,-0.0658,-0.0754,-0.0768,-0.0712,-0.0715,-0.0846,-0.0859,-0.0871,-0.0918,-0.0924,-0.093,-0.0933,-0.1065,-0.1065,-0.1065,0,0,0,0,0,0,-0.0405,-0.0422,-0.0577,-0.0515,-0.0536,-0.0613,-0.0648,-0.0661,-0.0688,-0.0769,-0.0784,-0.0726,-0.0847,-0.0863,-0.0918,-0.0924,-0.0932,-0.0938,-0.1065,-0.1065,-0.1065,-0.1011,0,0,0,0,0,0,-0.0399,-0.042,-0.0433,-0.0514,-0.0539,-0.062,-0.0648,-0.0663,-0.0698,-0.0703,-0.0786,-0.0799,-0.0848,-0.0909,-0.0924,-0.0932,-0.0942,-0.1064,-0.1065,-0.1065,-0.1012,-0.1009,-0.1006,0,0,0,0,0,-0.0391,-0.0413,-0.0433,-0.045,-0.0556,-0.062,-0.0634,-0.0688,-0.0698,-0.0712,-0.0764,-0.0797,-0.092,-0.0914,-0.0931,-0.0941,-0.1064,-0.1065,-0.1065,-0.1014,-0.101,-0.1006,0,0,0,0,0,0,-0.0333,-0.0425,-0.0448,-0.0497,-0.055,-0.0632,-0.0652,-0.0682,-0.0735,-0.0738,-0.0804,-0.0823,-0.0871,-0.0912,-0.0903,-0.098,-0.0996,-0.0999,-0.0951,-0.0948,-0.0945,-0.0934,-0.0947,0,0,0,0,0,-0.0325,-0.0367,-0.0447,-0.0482,-0.0507,-0.0574,-0.0604,-0.0641,-0.0699,-0.0723,-0.0778,-0.0835,-0.0887,-0.092,-0.0972,-0.1018,-0.1038,-0.1034,-0.1031,-0.1028,-0.103,-0.1058,-0.1057,-0.1066,-0.1066,-0.1066,0,0,-0.031,-0.0366,-0.0389,-0.0471,-0.0517,-0.056,-0.0593,-0.0638,-0.0671,-0.073,-0.0785,-0.0827,-0.0895,-0.0945,-0.0971,-0.0981,-0.1032,-0.1028,-0.1025,-0.103,-0.1058,-0.1057,-0.1056,-0.1066,-0.1066,-0.1066,0,0,-0.0306,-0.0352,-0.0386,-0.043,-0.0498,-0.0542,-0.055,-0.0627,-0.0657,-0.0712,-0.0757,-0.0799,-0.0886,-0.0932,-0.0967,-0.0978,-0.1011,-0.0994,-0.0978,-0.1004,-0.1003,-0.1003,-0.1006,-0.1007,-0.0996,-0.0996,-0.0996,0,-0.028,-0.0345,-0.04,-0.0442,-0.0477,-0.053,-0.0565,-0.0606,-0.0688,-0.0712,-0.0722,-0.0832,-0.0881,-0.0943,-0.0945,-0.0972,-0.0984,-0.0985,-0.0998,-0.0999,-0.0999,-0.1003,-0.1005,-0.0993,-0.0994,-0.0994,-0.0994,0,-0.031,-0.0355,-0.0374,-0.0449,-0.0487,-0.0525,-0.0587,-0.0618,-0.0651,-0.0695,-0.075,-0.0811,-0.0876,-0.0893,-0.0927,-0.096,-0.0964,-0.0985,-0.1003,-0.0995,-0.1,-0.1002,-0.099,-0.0991,-0.0991,-0.0992,0,0,-0.0273,-0.0376,-0.0383,-0.0417,-0.0495,-0.0531,-0.0572,-0.0634,-0.0659,-0.0714,-0.075,-0.0822,-0.0842,-0.0881,-0.0921,-0.0943,-0.0947,-0.0962,-0.0965,-0.0957,-0.0987,-0.097,-0.0971,-0.0969,-0.097,-0.097,-0.0981,0,-0.0279,-0.0353,-0.0403,-0.0458,-0.0501,-0.0551,-0.0587,-0.0639,-0.068,-0.0723,-0.077,-0.082,-0.0842,-0.0866,-0.089,-0.0942,-0.0954,-0.0942,-0.1005,-0.1006,-0.0986,-0.0974,-0.0957,-0.0964,-0.0984,-0.0984,-0.0984,0,-0.0297,-0.0347,-0.0405,-0.0477,-0.0497,-0.0528,-0.0588,-0.0628,-0.0688,-0.0717,-0.076,-0.0799,-0.0846,-0.0859,-0.0924,-0.0914,-0.0943,-0.0972,-0.0974,-0.0982,-0.0995,-0.0982,-0.0968,-0.0969,-0.0988,-0.0988,-0.0988,0,-0.0264,-0.0346,-0.0392,-0.042,-0.0505,-0.0525,-0.0562,-0.0622,-0.0655,-0.0708,-0.0731,-0.0789,-0.0821,-0.0865,-0.092,-0.0924,-0.098,-0.0997,-0.1005,-0.1004,-0.1015,-0.1014,-0.1006,-0.1033,-0.1033,-0.1033,-0.1033,0,-0.0266,-0.0299,-0.0378,-0.0406,-0.0445,-0.0502,-0.054,-0.0582,-0.0634,-0.0672,-0.072,-0.0754,-0.0824,-0.0868,-0.0911,-0.0958,-0.0973,-0.0998,-0.1009,-0.0993,-0.099,-0.1013,-0.1014,-0.1034,-0.1034,-0.1034,-0.1034,0,-0.0236,-0.0289,-0.0342,-0.0417,-0.0437,-0.0463,-0.0528,-0.0558,-0.0601,-0.0648,-0.0662,-0.0731,-0.0785,-0.0843,-0.0917,-0.0946,-0.0991,-0.1007,-0.097,-0.0976,-0.098,-0.0979,-0.0987,-0.0991,-0.1016,-0.1015,-0.1015,0,-0.0233,-0.026,-0.0337,-0.0365,-0.0399,-0.0444,-0.0477,-0.0535,-0.0568,-0.0638,-0.0659,-0.0715,-0.0763,-0.0847,-0.0904,-0.0961,-0.0979,-0.0978,-0.0988,-0.0971,-0.0979,-0.0976,-0.0979,-0.0975,-0.0974,-0.0974,-0.0973,0,-0.0223,-0.0248,-0.0293,-0.0348,-0.0386,-0.0432,-0.048,-0.0501,-0.0568,-0.0603,-0.0657,-0.0694,-0.0768,-0.0824,-0.0887,-0.0927,-0.0961,-0.0969,-0.0974,-0.0959,-0.0936,-0.0948,-0.0961,-0.0969,-0.097,-0.097,-0.097,-0.097,-0.0207,-0.0232,-0.029,-0.0339,-0.0381,-0.0425,-0.0455,-0.0502,-0.0547,-0.061,-0.0642,-0.0695,-0.0755,-0.0843,-0.0881,-0.0925,-0.0936,-0.0943,-0.0945,-0.0946,-0.0941,-0.0928,-0.0937,-0.0937,-0.0937,-0.0938,-0.0938,0,-0.0199,-0.0238,-0.0282,-0.0347,-0.0385,-0.0412,-0.0467,-0.0498,-0.0543,-0.0595,-0.064,-0.0702,-0.0756,-0.0817,-0.0875,-0.0898,-0.0916,-0.0912,-0.0911,-0.0919,-0.0929,-0.0918,-0.0896,-0.0896,-0.0896,-0.0896,-0.0896,-0.0896,-0.0199,-0.0244,-0.0275,-0.0341,-0.0381,-0.0431,-0.046,-0.0501,-0.0542,-0.0608,-0.0652,-0.069,-0.0746,-0.0808,-0.0859,-0.0876,-0.0895,-0.0886,-0.0907,-0.0915,-0.0918,-0.0922,-0.0912,-0.089,-0.089,-0.0894,-0.0894,-0.0894]},{"header":{"parameterUnit":"m.s-1","parameterCategory":1,"la1":30.2991,"la2":30.254,"lo1":-89.0895,"lo2":-89.0444,"dy":0.0017,"dx":0.0017,"nx":28,"ny":28,"refTime":"2025-08-03T21:00:00:Z","depth":0,"parameterNumber":3,"parameterNumberName":"V-component_of_WINDS"},"data":[0,0,0,0,0,0,0,0,0,0,0,0,0,0,0,0,0,0,0,0,0,0,0,0,0,0,0,0,0,0,0,0,0,0,0,0,0,0,0,0,0,0,0,0,0,0,0,0,0,0,0,0,0,0,0,0,0,0,-3.3086,-3.3086,0,-3.3093,-3.3093,-3.3094,-3.3037,-3.3036,-3.3034,-3.3033,-3.3039,-3.3041,-3.3043,0,0,0,0,0,0,0,0,0,0,0,0,0,-3.3021,-3.3023,-3.3086,-3.3086,-3.3086,-3.3093,-3.3093,-3.3094,-3.3038,-3.3036,-3.3034,-3.3032,-3.3039,-3.3041,-3.3043,0,0,0,0,0,0,0,0,0,0,0,0,0,-3.3041,-3.3023,-3.3086,-3.3059,-3.3057,-3.3093,-3.3093,-3.3094,-3.3038,-3.3036,-3.3033,-3.3031,-3.3038,-3.3041,-3.3043,-3.3105,0,0,-3.3051,-3.3052,0,0,0,0,0,0,0,0,-3.304,-3.3044,-3.3063,-3.3061,-3.3058,-3.3062,-3.3073,-3.3098,-3.3039,-3.3045,-3.3033,-3.303,-3.3049,-3.305,-3.3057,-3.3106,-3.3106,-3.3051,-3.3052,-3.3053,-3.3054,0,0,0,0,0,0,0,-3.3039,-3.3043,-3.3089,-3.3063,-3.3061,-3.3046,-3.3046,-3.3077,-3.306,-3.3044,-3.304,-3.3042,-3.3047,-3.3055,-3.3056,-3.3106,-3.3051,-3.3053,-3.3054,-3.3055,-3.3205,-3.3208,0,0,0,0,0,0,-3.3041,-3.3042,-3.3089,-3.3089,-3.3043,-3.3049,-3.3049,-3.3063,-3.306,-3.3057,-3.3044,-3.3039,-3.3051,-3.3054,-3.3057,-3.3128,-3.3053,-3.3056,-3.3057,-3.3203,-3.3206,-3.3209,0,0,0,0,0,0,-3.304,-3.3046,-3.3088,-3.3065,-3.3069,-3.3053,-3.3069,-3.3065,-3.3072,-3.3059,-3.3056,-3.3055,-3.305,-3.3053,-3.3093,-3.3128,-3.3057,-3.3059,-3.32,-3.3204,-3.3207,-3.3273,0,0,0,0,0,0,-3.3039,-3.3046,-3.307,-3.3066,-3.307,-3.3126,-3.3071,-3.3066,-3.3077,-3.3071,-3.3069,-3.3066,-3.3048,-3.309,-3.3096,-3.313,-3.3061,-3.3197,-3.3202,-3.3206,-3.3268,-3.3279,-3.3288,0,0,0,0,0,-3.3036,-3.3088,-3.3071,-3.3077,-3.31,-3.3128,-3.313,-3.3109,-3.308,-3.3103,-3.3095,-3.3066,-3.3123,-3.3095,-3.3101,-3.3136,-3.3195,-3.32,-3.3206,-3.3263,-3.3277,-3.3288,0,0,0,0,0,0,-3.3097,-3.3087,-3.3068,-3.312,-3.3125,-3.3118,-3.3147,-3.3124,-3.3137,-3.3131,-3.3104,-3.3104,-3.3149,-3.3146,-3.3115,-3.3196,-3.3154,-3.3161,-3.3195,-3.3208,-3.3218,-3.3217,-3.3063,0,0,0,0,0,-3.3116,-3.314,-3.313,-3.3177,-3.318,-3.3164,-3.3175,-3.3158,-3.3162,-3.3164,-3.3158,-3.3163,-3.3182,-3.3195,-3.3212,-3.3268,-3.3266,-3.3295,-3.3305,-3.3313,-3.3319,-3.3348,-3.336,-3.3227,-3.3227,-3.3227,0,0,-3.3156,-3.3154,-3.3171,-3.3189,-3.3191,-3.3215,-3.3166,-3.3194,-3.3212,-3.3168,-3.3205,-3.3202,-3.3205,-3.3254,-3.3274,-3.3253,-3.3356,-3.332,-3.3327,-3.3329,-3.3355,-3.3367,-3.3379,-3.3231,-3.323,-3.323,0,0,-3.3242,-3.3243,-3.3281,-3.3284,-3.3288,-3.3276,-3.3286,-3.3282,-3.3278,-3.3316,-3.3283,-3.3303,-3.3337,-3.334,-3.3346,-3.3433,-3.3407,-3.3439,-3.3492,-3.352,-3.353,-3.3539,-3.3569,-3.358,-3.3446,-3.3446,-3.3446,0,-3.3291,-3.3327,-3.3304,-3.3335,-3.3343,-3.3305,-3.3343,-3.3347,-3.3356,-3.3362,-3.3338,-3.3379,-3.3379,-3.3426,-3.3448,-3.3454,-3.3463,-3.3439,-3.353,-3.3539,-3.3548,-3.3576,-3.3587,-3.345,-3.3449,-3.3449,-3.3448,0,-3.3387,-3.3413,-3.3443,-3.3453,-3.3465,-3.3499,-3.3481,-3.3496,-3.3478,-3.3469,-3.3507,-3.3505,-3.352,-3.3531,-3.3514,-3.3576,-3.3563,-3.3535,-3.3492,-3.3564,-3.359,-3.3601,-3.3455,-3.3454,-3.3453,-3.3452,0,0,-3.351,-3.3506,-3.3518,-3.3521,-3.3522,-3.3541,-3.3574,-3.3589,-3.3602,-3.3609,-3.3635,-3.3664,-3.3638,-3.3645,-3.3628,-3.3653,-3.372,-3.3622,-3.3622,-3.364,-3.3788,-3.3808,-3.3821,-3.3703,-3.3705,-3.3707,-3.3787,0,-3.3593,-3.3648,-3.3628,-3.3684,-3.3706,-3.367,-3.3698,-3.3702,-3.3694,-3.3712,-3.3703,-3.3724,-3.3689,-3.3693,-3.3716,-3.3707,-3.375,-3.3702,-3.3726,-3.3727,-3.3725,-3.3834,-3.3856,-3.3932,-3.3797,-3.3799,-3.38,0,-3.3696,-3.3708,-3.3766,-3.3762,-3.3771,-3.3797,-3.3808,-3.3826,-3.3829,-3.3822,-3.383,-3.3807,-3.3838,-3.3796,-3.3837,-3.3805,-3.3814,-3.3811,-3.3814,-3.3814,-3.3767,-3.3837,-3.3955,-3.3966,-3.3816,-3.3815,-3.3814,0,-3.3779,-3.3809,-3.3848,-3.3852,-3.3849,-3.3867,-3.3867,-3.3867,-3.3877,-3.3888,-3.3894,-3.3908,-3.3915,-3.3926,-3.3908,-3.3879,-3.3952,-3.3908,-3.3946,-3.3946,-3.3962,-3.3961,-3.4082,-3.397,-3.397,-3.3969,-3.3969,0,-3.3873,-3.3909,-3.3884,-3.3908,-3.3948,-3.3924,-3.3965,-3.396,-3.3961,-3.3982,-3.3952,-3.3973,-3.3948,-3.3966,-3.3952,-3.3988,-3.3992,-3.3986,-3.3982,-3.3988,-3.3989,-3.3993,-3.3987,-3.3972,-3.3972,-3.3971,-3.3971,0,-3.3971,-3.3956,-3.3996,-3.3989,-3.3989,-3.4018,-3.4013,-3.4034,-3.4024,-3.4052,-3.4057,-3.4042,-3.4062,-3.4045,-3.4064,-3.4054,-3.4102,-3.409,-3.4101,-3.4097,-3.4135,-3.4131,-3.4262,-3.4278,-3.4157,-3.4158,-3.4159,0,-3.4031,-3.4059,-3.4056,-3.4068,-3.4069,-3.409,-3.41,-3.4078,-3.4089,-3.4094,-3.4115,-3.4132,-3.4145,-3.4178,-3.4169,-3.4183,-3.4171,-3.4216,-3.4173,-3.4179,-3.4171,-3.4169,-3.4171,-3.4225,-3.4226,-3.4227,-3.4228,0,-3.4139,-3.413,-3.4146,-3.416,-3.4172,-3.4182,-3.4189,-3.42,-3.4178,-3.4192,-3.4212,-3.4222,-3.4242,-3.4259,-3.4271,-3.4269,-3.4245,-3.4242,-3.4251,-3.4257,-3.4262,-3.4259,-3.4123,-3.4239,-3.4238,-3.4237,-3.4236,-3.4236,-3.422,-3.4242,-3.4243,-3.4261,-3.4264,-3.4271,-3.429,-3.4283,-3.4299,-3.4314,-3.43,-3.4324,-3.4325,-3.4338,-3.434,-3.4358,-3.4339,-3.4353,-3.4356,-3.4359,-3.4364,-3.426,-3.436,-3.436,-3.436,-3.4359,-3.4359,0,-3.4325,-3.4324,-3.4341,-3.4351,-3.4366,-3.4342,-3.4348,-3.4361,-3.4383,-3.4387,-3.44,-3.4422,-3.4439,-3.4431,-3.4445,-3.4461,-3.445,-3.4466,-3.4464,-3.4463,-3.4381,-3.4371,-3.4474,-3.4474,-3.4474,-3.4474,-3.4474,-3.4474,-3.4381,-3.4417,-3.4409,-3.4445,-3.4444,-3.4467,-3.4472,-3.4478,-3.4481,-3.4508,-3.4521,-3.4516,-3.4515,-3.4528,-3.4543,-3.454,-3.4546,-3.4565,-3.4558,-3.4481,-3.4469,-3.4459,-3.4449,-3.4567,-3.4567,-3.4639,-3.464,-3.464]}]]